SIA959 WIII-WSSS

Flight info

Callsign SIA959
Flight time 1h 21m
Altitude 40000
Route DOLTA G579 REPOV REPOV2B
Aircraft A359/H-SDE1E2E3GHIJ1J2J3J5M1P2RWXYZ/LB1D1

Departure

Time 2026-05-08 06:54
Airport Soekarno-Hatta International Airport (WIII)

Arrival

Time 2026-05-08 08:16
Airport Singapore Changi Airport (WSSS)
Time Latitude Longitude Altitude Speed Heading
2026-05-08 06:24 -6.11812 106.66309 44 ft 0 kts 158°
2026-05-08 06:44 -6.11798 106.66304 43 ft 3 kts 162°
2026-05-08 06:44 -6.11776 106.66298 42 ft 3 kts 172°
2026-05-08 06:44 -6.11753 106.66296 42 ft 3 kts 184°
2026-05-08 06:45 -6.11731 106.66300 41 ft 3 kts 200°
2026-05-08 06:45 -6.11711 106.66310 41 ft 3 kts 222°
2026-05-08 06:45 -6.11698 106.66326 44 ft 2 kts 248°
2026-05-08 06:45 -6.11697 106.66327 44 ft 0 kts 249°
2026-05-08 06:47 -6.11706 106.66305 40 ft 6 kts 248°
2026-05-08 06:48 -6.11726 106.66254 44 ft 9 kts 248°
2026-05-08 06:48 -6.11753 106.66186 44 ft 12 kts 248°
2026-05-08 06:48 -6.11788 106.66099 44 ft 15 kts 248°
2026-05-08 06:48 -6.11774 106.66016 44 ft 13 kts 331°
2026-05-08 06:49 -6.11687 106.65978 44 ft 15 kts 338°
2026-05-08 06:49 -6.11587 106.65935 44 ft 16 kts 334°
2026-05-08 06:49 -6.11480 106.65882 44 ft 18 kts 334°
2026-05-08 06:49 -6.11419 106.65791 44 ft 17 kts 281°
2026-05-08 06:50 -6.11378 106.65685 45 ft 16 kts 313°
2026-05-08 06:50 -6.11282 106.65632 44 ft 16 kts 338°
2026-05-08 06:50 -6.11240 106.65557 45 ft 13 kts 252°
2026-05-08 06:50 -6.11276 106.65466 45 ft 15 kts 248°
2026-05-08 06:51 -6.11319 106.65359 45 ft 18 kts 248°
2026-05-08 06:51 -6.11368 106.65237 43 ft 20 kts 248°
2026-05-08 06:51 -6.11421 106.65102 46 ft 22 kts 248°
2026-05-08 06:51 -6.11479 106.64956 46 ft 24 kts 248°
2026-05-08 06:52 -6.11544 106.64793 44 ft 26 kts 248°
2026-05-08 06:52 -6.11613 106.64621 43 ft 27 kts 248°
2026-05-08 06:52 -6.11656 106.64466 45 ft 8 kts 289°
2026-05-08 06:52 -6.11619 106.64441 43 ft 12 kts 332°
2026-05-08 06:53 -6.11551 106.64429 45 ft 9 kts 14°
2026-05-08 06:53 -6.11501 106.64453 46 ft 8 kts 33°
2026-05-08 06:53 -6.11453 106.64487 46 ft 9 kts 39°
2026-05-08 06:53 -6.11317 106.64641 46 ft 62 kts 64°
2026-05-08 06:54 -6.11060 106.65285 46 ft 135 kts 69°
2026-05-08 06:54 -6.10664 106.66277 483 ft 155 kts 66°
2026-05-08 06:54 -6.10329 106.67325 1158 ft 165 kts 80°
2026-05-08 06:54 -6.10281 106.68576 1487 ft 194 kts 76°
2026-05-08 06:55 -6.09781 106.69910 1772 ft 217 kts 56°
2026-05-08 06:55 -6.08581 106.70922 2136 ft 240 kts 30°
2026-05-08 06:55 -6.07042 106.71727 2597 ft 260 kts 26°
2026-05-08 06:55 -6.05372 106.72518 3289 ft 269 kts 26°
2026-05-08 06:56 -6.03653 106.73319 4048 ft 274 kts 26°
2026-05-08 06:56 -6.01921 106.74127 4801 ft 275 kts 26°
2026-05-08 06:56 -6.00157 106.74898 5537 ft 278 kts 21°
2026-05-08 06:56 -5.98220 106.75138 6293 ft 285 kts 354°
2026-05-08 06:57 -5.96402 106.74435 7002 ft 288 kts 324°
2026-05-08 06:57 -5.95122 106.72886 7745 ft 290 kts 298°
2026-05-08 06:57 -5.94247 106.71090 8478 ft 293 kts 294°
2026-05-08 06:57 -5.93385 106.69179 9256 ft 295 kts 294°
2026-05-08 06:58 -5.92528 106.67290 10001 ft 300 kts 294°
2026-05-08 06:58 -5.91629 106.65324 10389 ft 320 kts 294°
2026-05-08 06:58 -5.90659 106.63219 10700 ft 341 kts 294°
2026-05-08 06:58 -5.89648 106.61037 11047 ft 357 kts 295°
2026-05-08 06:59 -5.88574 106.58730 11439 ft 370 kts 295°
2026-05-08 06:59 -5.87477 106.56376 12140 ft 372 kts 295°
2026-05-08 06:59 -5.86373 106.54007 12777 ft 378 kts 295°
2026-05-08 06:59 -5.85247 106.51591 13324 ft 385 kts 295°
2026-05-08 07:00 -5.84107 106.49148 13711 ft 385 kts 295°
2026-05-08 07:00 -5.82969 106.46707 13807 ft 385 kts 295°
2026-05-08 07:00 -5.81831 106.44272 13817 ft 385 kts 295°
2026-05-08 07:00 -5.80713 106.41862 13818 ft 385 kts 295°
2026-05-08 07:01 -5.79581 106.39418 13817 ft 385 kts 295°
2026-05-08 07:01 -5.78448 106.36974 13815 ft 385 kts 295°
2026-05-08 07:01 -5.77315 106.34531 13815 ft 385 kts 295°
2026-05-08 07:01 -5.76563 106.32911 13815 ft 385 kts 295°
2026-05-08 07:02 -5.75053 106.29686 13814 ft 385 kts 296°
2026-05-08 07:02 -5.74130 106.28123 13813 ft 385 kts 306°
2026-05-08 07:02 -5.72271 106.26259 13856 ft 385 kts 325°
2026-05-08 07:02 -5.69972 106.24848 14305 ft 388 kts 331°
2026-05-08 07:03 -5.67605 106.23521 14921 ft 390 kts 331°
2026-05-08 07:03 -5.65222 106.22189 15486 ft 393 kts 331°
2026-05-08 07:03 -5.62818 106.20841 16031 ft 397 kts 331°
2026-05-08 07:03 -5.60419 106.19492 16565 ft 401 kts 331°
2026-05-08 07:04 -5.57969 106.18111 17097 ft 405 kts 331°
2026-05-08 07:04 -5.55500 106.16718 17628 ft 409 kts 331°
2026-05-08 07:04 -5.53005 106.15311 18150 ft 413 kts 331°
2026-05-08 07:04 -5.50486 106.13889 18618 ft 416 kts 331°
2026-05-08 07:05 -5.47955 106.12461 19141 ft 417 kts 331°
2026-05-08 07:05 -5.45408 106.11024 19639 ft 420 kts 331°
2026-05-08 07:05 -5.42881 106.09598 20127 ft 421 kts 331°
2026-05-08 07:05 -5.40318 106.08152 20642 ft 423 kts 331°
2026-05-08 07:06 -5.37740 106.06700 21146 ft 425 kts 332°
2026-05-08 07:06 -5.35150 106.05240 21661 ft 427 kts 331°
2026-05-08 07:06 -5.32547 106.03767 22166 ft 430 kts 332°
2026-05-08 07:06 -5.29927 106.02286 22630 ft 432 kts 332°
2026-05-08 07:07 -5.27307 106.00805 22808 ft 432 kts 332°
2026-05-08 07:07 -5.24707 105.99336 22826 ft 433 kts 332°
2026-05-08 07:07 -5.22076 105.97850 22823 ft 434 kts 332°
2026-05-08 07:07 -5.19432 105.96357 22823 ft 434 kts 332°
2026-05-08 07:08 -5.16795 105.94869 22821 ft 434 kts 332°
2026-05-08 07:08 -5.14197 105.93403 22821 ft 434 kts 332°
2026-05-08 07:08 -5.11561 105.91915 22826 ft 435 kts 332°
2026-05-08 07:08 -5.08908 105.90410 23145 ft 438 kts 332°
2026-05-08 07:09 -5.06258 105.88899 23663 ft 438 kts 332°
2026-05-08 07:09 -5.03596 105.87379 24068 ft 440 kts 332°
2026-05-08 07:09 -5.00928 105.85855 24443 ft 443 kts 332°
2026-05-08 07:09 -4.98276 105.84342 24829 ft 446 kts 332°
2026-05-08 07:10 -4.95564 105.82796 25245 ft 449 kts 332°
2026-05-08 07:10 -4.92832 105.81240 25671 ft 452 kts 332°
2026-05-08 07:10 -4.90084 105.79675 26119 ft 455 kts 332°
2026-05-08 07:10 -4.87307 105.78093 26575 ft 459 kts 332°
2026-05-08 07:11 -4.84559 105.76529 27031 ft 462 kts 332°
2026-05-08 07:11 -4.81751 105.74931 27519 ft 465 kts 332°
2026-05-08 07:11 -4.78922 105.73320 27957 ft 469 kts 332°
2026-05-08 07:11 -4.76068 105.71695 28406 ft 473 kts 332°
2026-05-08 07:12 -4.73180 105.70051 28792 ft 477 kts 332°
2026-05-08 07:12 -4.70314 105.68420 29242 ft 481 kts 332°
2026-05-08 07:12 -4.67381 105.66751 29688 ft 484 kts 332°
2026-05-08 07:12 -4.64441 105.65079 30079 ft 487 kts 332°
2026-05-08 07:13 -4.61488 105.63398 30448 ft 489 kts 332°
2026-05-08 07:13 -4.58552 105.61729 30843 ft 491 kts 332°
2026-05-08 07:13 -4.55574 105.60034 31234 ft 493 kts 332°
2026-05-08 07:13 -4.52585 105.58334 31612 ft 495 kts 332°
2026-05-08 07:14 -4.49580 105.56624 31959 ft 497 kts 332°
2026-05-08 07:14 -4.46556 105.54904 32306 ft 499 kts 332°
2026-05-08 07:14 -4.43525 105.53181 32643 ft 501 kts 332°
2026-05-08 07:14 -4.40482 105.51450 32949 ft 503 kts 332°
2026-05-08 07:15 -4.37463 105.49732 33309 ft 504 kts 332°
2026-05-08 07:15 -4.34405 105.47994 33616 ft 505 kts 332°
2026-05-08 07:15 -4.31336 105.46249 33978 ft 504 kts 332°
2026-05-08 07:15 -4.28289 105.44517 34358 ft 503 kts 332°
2026-05-08 07:16 -4.25245 105.42787 34734 ft 501 kts 332°
2026-05-08 07:16 -4.22246 105.41082 35080 ft 500 kts 332°
2026-05-08 07:16 -4.19218 105.39362 35443 ft 499 kts 332°
2026-05-08 07:16 -4.16201 105.37648 35786 ft 498 kts 332°
2026-05-08 07:17 -4.13190 105.35937 36123 ft 497 kts 332°
2026-05-08 07:17 -4.10174 105.34224 36457 ft 496 kts 333°
2026-05-08 07:17 -4.07178 105.32522 36793 ft 494 kts 333°
2026-05-08 07:17 -4.04222 105.30844 37124 ft 493 kts 333°
2026-05-08 07:18 -4.01243 105.29151 37501 ft 491 kts 333°
2026-05-08 07:18 -3.98275 105.27465 37853 ft 490 kts 333°
2026-05-08 07:18 -3.95303 105.25778 38137 ft 489 kts 333°
2026-05-08 07:18 -3.92337 105.24094 38432 ft 489 kts 333°
2026-05-08 07:19 -3.89376 105.22421 38690 ft 488 kts 333°
2026-05-08 07:19 -3.86455 105.20776 38936 ft 487 kts 333°
2026-05-08 07:19 -3.83500 105.19112 39182 ft 486 kts 333°
2026-05-08 07:19 -3.80554 105.17454 39423 ft 485 kts 333°
2026-05-08 07:20 -3.77617 105.15801 39649 ft 484 kts 333°
2026-05-08 07:20 -3.74674 105.14145 39791 ft 484 kts 333°
2026-05-08 07:20 -3.68839 105.10860 39819 ft 483 kts 333°
2026-05-08 07:21 -3.62976 105.07561 39820 ft 484 kts 333°
2026-05-08 07:21 -3.57085 105.04246 39822 ft 484 kts 333°
2026-05-08 07:22 -3.51225 105.00949 39818 ft 484 kts 333°
2026-05-08 07:22 -3.45336 104.97635 39822 ft 485 kts 333°
2026-05-08 07:23 -3.39481 104.94342 39819 ft 485 kts 333°
2026-05-08 07:23 -3.33595 104.91031 39815 ft 484 kts 333°
2026-05-08 07:24 -3.27718 104.87726 39819 ft 484 kts 333°
2026-05-08 07:24 -3.21869 104.84437 39817 ft 484 kts 333°
2026-05-08 07:25 -3.15987 104.81131 39815 ft 483 kts 333°
2026-05-08 07:26 -3.07233 104.76210 39809 ft 483 kts 333°
2026-05-08 07:26 -3.01352 104.72905 39803 ft 483 kts 333°
2026-05-08 07:27 -2.95481 104.69606 39803 ft 483 kts 333°
2026-05-08 07:27 -2.89559 104.66400 39802 ft 483 kts 338°
2026-05-08 07:28 -2.83205 104.64445 39802 ft 480 kts 349°
2026-05-08 07:28 -2.76649 104.63127 39814 ft 479 kts 351°
2026-05-08 07:29 -2.70121 104.61929 39815 ft 479 kts 351°
2026-05-08 07:29 -2.63541 104.60715 39815 ft 479 kts 351°
2026-05-08 07:30 -2.57005 104.59489 39816 ft 480 kts 351°
2026-05-08 07:30 -2.50416 104.58244 39812 ft 482 kts 351°
2026-05-08 07:31 -2.43803 104.56992 39814 ft 483 kts 351°
2026-05-08 07:31 -2.37249 104.55753 39815 ft 483 kts 351°
2026-05-08 07:32 -2.30631 104.54503 39809 ft 483 kts 351°
2026-05-08 07:32 -2.24024 104.53255 39815 ft 483 kts 351°
2026-05-08 07:33 -2.17457 104.52015 39817 ft 484 kts 351°
2026-05-08 07:33 -2.10804 104.50758 39814 ft 486 kts 351°
2026-05-08 07:34 -2.04195 104.49510 39816 ft 486 kts 351°
2026-05-08 07:34 -1.97538 104.48252 39816 ft 486 kts 351°
2026-05-08 07:35 -1.90883 104.46996 39809 ft 486 kts 351°
2026-05-08 07:35 -1.84232 104.45740 39814 ft 486 kts 351°
2026-05-08 07:36 -1.77625 104.44493 39812 ft 484 kts 351°
2026-05-08 07:36 -1.70993 104.43240 39815 ft 484 kts 351°
2026-05-08 07:37 -1.64372 104.41991 39814 ft 484 kts 351°
2026-05-08 07:37 -1.57787 104.40748 39813 ft 484 kts 351°
2026-05-08 07:38 -1.51167 104.39498 39811 ft 484 kts 351°
2026-05-08 07:38 -1.44536 104.38247 39815 ft 483 kts 351°
2026-05-08 07:39 -1.38138 104.37039 39811 ft 483 kts 351°
2026-05-08 07:39 -1.32619 104.35998 39816 ft 483 kts 351°
2026-05-08 07:40 -1.26006 104.34750 39816 ft 483 kts 351°
2026-05-08 07:40 -1.19397 104.33503 39808 ft 483 kts 351°
2026-05-08 07:41 -1.12826 104.32263 39817 ft 483 kts 351°
2026-05-08 07:41 -1.06213 104.31015 39813 ft 484 kts 351°
2026-05-08 07:42 -0.99575 104.29763 39816 ft 485 kts 351°
2026-05-08 07:42 -0.92970 104.28517 39811 ft 485 kts 351°
2026-05-08 07:43 -0.86316 104.27262 39819 ft 485 kts 351°
2026-05-08 07:43 -0.82986 104.26633 39644 ft 485 kts 351°
2026-05-08 07:43 -0.79657 104.26005 39409 ft 486 kts 351°
2026-05-08 07:43 -0.76367 104.25385 39179 ft 488 kts 351°
2026-05-08 07:44 -0.73025 104.24755 38941 ft 489 kts 351°
2026-05-08 07:44 -0.69653 104.24120 38681 ft 491 kts 351°
2026-05-08 07:44 -0.66305 104.23488 38107 ft 488 kts 351°
2026-05-08 07:44 -0.62968 104.22858 37429 ft 488 kts 351°
2026-05-08 07:45 -0.59632 104.22228 36741 ft 488 kts 351°
2026-05-08 07:45 -0.56289 104.21598 36053 ft 488 kts 351°
2026-05-08 07:45 -0.52940 104.20953 35158 ft 493 kts 350°
2026-05-08 07:45 -0.49563 104.20277 34257 ft 499 kts 350°
2026-05-08 07:46 -0.46167 104.19597 33334 ft 503 kts 350°
2026-05-08 07:46 -0.42724 104.18909 32415 ft 505 kts 351°
2026-05-08 07:46 -0.39296 104.18225 31500 ft 507 kts 351°
2026-05-08 07:46 -0.35787 104.17527 30676 ft 508 kts 351°
2026-05-08 07:47 -0.32321 104.16838 29997 ft 505 kts 351°
2026-05-08 07:47 -0.28884 104.16155 29260 ft 501 kts 351°
2026-05-08 07:47 -0.25523 104.15487 28595 ft 496 kts 351°
2026-05-08 07:47 -0.22155 104.14818 27929 ft 491 kts 351°
2026-05-08 07:48 -0.18810 104.14154 27262 ft 487 kts 351°
2026-05-08 07:48 -0.15496 104.13496 26604 ft 483 kts 351°
2026-05-08 07:48 -0.12202 104.12843 25969 ft 479 kts 351°
2026-05-08 07:48 -0.08941 104.12195 25326 ft 475 kts 351°
2026-05-08 07:49 -0.05748 104.11562 24700 ft 471 kts 351°
2026-05-08 07:49 -0.02537 104.10924 24058 ft 468 kts 351°
2026-05-08 07:49 0.00649 104.10292 23427 ft 465 kts 351°
2026-05-08 07:49 0.03819 104.09663 22839 ft 458 kts 351°
2026-05-08 07:50 0.06851 104.09060 22715 ft 441 kts 351°
2026-05-08 07:50 0.09804 104.08473 22597 ft 424 kts 351°
2026-05-08 07:50 0.12660 104.07905 22444 ft 417 kts 351°
2026-05-08 07:50 0.15577 104.07330 22339 ft 436 kts 351°
2026-05-08 07:51 0.18594 104.06734 22256 ft 442 kts 351°
2026-05-08 07:51 0.20589 104.06338 22104 ft 440 kts 351°
2026-05-08 07:51 0.23592 104.05741 21733 ft 438 kts 351°
2026-05-08 07:51 0.26578 104.05149 21059 ft 436 kts 351°
2026-05-08 07:52 0.29550 104.04563 20572 ft 432 kts 351°
2026-05-08 07:52 0.32507 104.03976 20207 ft 431 kts 350°
2026-05-08 07:52 0.35411 104.03399 19874 ft 430 kts 350°
2026-05-08 07:52 0.38336 104.02817 19534 ft 428 kts 350°
2026-05-08 07:53 0.41250 104.02239 19194 ft 425 kts 350°
2026-05-08 07:53 0.44171 104.01829 19166 ft 424 kts 358°
2026-05-08 07:53 0.47106 104.01925 18956 ft 421 kts
2026-05-08 07:53 0.50006 104.02318 18426 ft 419 kts 10°
2026-05-08 07:54 0.52893 104.02784 17507 ft 422 kts 11°
2026-05-08 07:54 0.55817 104.03277 16437 ft 427 kts 11°
2026-05-08 07:54 0.58732 104.03774 15436 ft 431 kts 11°
2026-05-08 07:54 0.61664 104.04277 14547 ft 419 kts 11°
2026-05-08 07:55 0.64505 104.04764 13590 ft 404 kts 10°
2026-05-08 07:55 0.67237 104.05234 12521 ft 391 kts 10°
2026-05-08 07:55 0.69850 104.05684 11500 ft 380 kts 10°
2026-05-08 07:55 0.72420 104.06127 10498 ft 370 kts 10°
2026-05-08 07:56 0.74926 104.06559 9492 ft 361 kts 10°
2026-05-08 07:56 0.77373 104.06982 8449 ft 353 kts
2026-05-08 07:56 0.79758 104.07394 7674 ft 340 kts
2026-05-08 07:56 0.82016 104.07784 7199 ft 318 kts
2026-05-08 07:57 0.84107 104.08145 7045 ft 290 kts
2026-05-08 07:57 0.86009 104.08474 6947 ft 264 kts
2026-05-08 07:57 0.87773 104.08778 6852 ft 251 kts
2026-05-08 07:57 0.89441 104.09066 6700 ft 242 kts
2026-05-08 07:58 0.91101 104.09352 6423 ft 240 kts
2026-05-08 07:58 0.92736 104.09633 6138 ft 236 kts
2026-05-08 07:58 0.94340 104.09910 5839 ft 233 kts
2026-05-08 07:58 0.95944 104.10186 5516 ft 233 kts
2026-05-08 07:59 0.97543 104.10462 5206 ft 233 kts
2026-05-08 07:59 0.99138 104.10737 4905 ft 231 kts
2026-05-08 07:59 1.00704 104.11007 4607 ft 230 kts
2026-05-08 07:59 1.02279 104.11278 4283 ft 229 kts
2026-05-08 08:00 1.03849 104.11549 4056 ft 228 kts
2026-05-08 08:00 1.05419 104.11820 4022 ft 229 kts
2026-05-08 08:00 1.06989 104.12092 4017 ft 228 kts
2026-05-08 08:00 1.08552 104.12362 4024 ft 228 kts
2026-05-08 08:01 1.10116 104.12631 4018 ft 228 kts
2026-05-08 08:01 1.11681 104.12902 4019 ft 228 kts
2026-05-08 08:01 1.13231 104.13189 4018 ft 226 kts 11°
2026-05-08 08:01 1.14719 104.13634 4021 ft 226 kts 18°
2026-05-08 08:02 1.16188 104.14197 4022 ft 226 kts 21°
2026-05-08 08:02 1.17630 104.14817 4020 ft 226 kts 23°
2026-05-08 08:02 1.19068 104.15460 4020 ft 226 kts 23°
2026-05-08 08:02 1.20505 104.16106 4020 ft 226 kts 23°
2026-05-08 08:03 1.21951 104.16747 4017 ft 226 kts 23°
2026-05-08 08:03 1.23395 104.17378 4016 ft 226 kts 22°
2026-05-08 08:03 1.24852 104.18006 4014 ft 230 kts 22°
2026-05-08 08:03 1.26310 104.18629 4015 ft 231 kts 22°
2026-05-08 08:04 1.27794 104.19261 4010 ft 231 kts 22°
2026-05-08 08:04 1.29277 104.19892 4010 ft 231 kts 22°
2026-05-08 08:04 1.30760 104.20523 4010 ft 231 kts 22°
2026-05-08 08:04 1.32285 104.21014 3981 ft 228 kts
2026-05-08 08:05 1.33790 104.21049 3881 ft 210 kts 355°
2026-05-08 08:05 1.35198 104.20888 3778 ft 199 kts 349°
2026-05-08 08:05 1.36579 104.20632 3683 ft 203 kts 347°
2026-05-08 08:05 1.37939 104.20332 3551 ft 206 kts 345°
2026-05-08 08:06 1.39375 104.20015 3543 ft 208 kts 347°
2026-05-08 08:06 1.40824 104.19674 3528 ft 216 kts 345°
2026-05-08 08:06 1.42305 104.19354 3539 ft 219 kts 346°
2026-05-08 08:06 1.43795 104.19047 3641 ft 216 kts 349°
2026-05-08 08:07 1.45232 104.18771 3582 ft 205 kts 347°
2026-05-08 08:07 1.46600 104.18476 3327 ft 197 kts 346°
2026-05-08 08:07 1.47905 104.18174 3082 ft 194 kts 345°
2026-05-08 08:07 1.49190 104.17849 3228 ft 183 kts 344°
2026-05-08 08:08 1.50449 104.17539 3070 ft 190 kts 345°
2026-05-08 08:08 1.51733 104.17226 2976 ft 188 kts 346°
2026-05-08 08:08 1.53029 104.16932 3029 ft 192 kts 346°
2026-05-08 08:08 1.54290 104.16512 3055 ft 190 kts 331°
2026-05-08 08:09 1.55292 104.15640 2980 ft 193 kts 307°
2026-05-08 08:09 1.56213 104.14660 2703 ft 199 kts 315°
2026-05-08 08:09 1.57053 104.13572 2501 ft 194 kts 297°
2026-05-08 08:09 1.57406 104.12347 2496 ft 175 kts 278°
2026-05-08 08:10 1.57475 104.11160 2509 ft 172 kts 266°
2026-05-08 08:10 1.57212 104.09982 2499 ft 176 kts 248°
2026-05-08 08:10 1.56505 104.08990 2503 ft 178 kts 221°
2026-05-08 08:10 1.55473 104.08320 2500 ft 176 kts 207°
2026-05-08 08:11 1.54353 104.07807 2494 ft 177 kts 205°
2026-05-08 08:11 1.53218 104.07313 2498 ft 178 kts 204°
2026-05-08 08:11 1.52086 104.06826 2490 ft 178 kts 205°
2026-05-08 08:11 1.50949 104.06329 2491 ft 178 kts 204°
2026-05-08 08:12 1.49814 104.05830 2492 ft 178 kts 205°
2026-05-08 08:12 1.48676 104.05332 2491 ft 178 kts 205°
2026-05-08 08:12 1.47548 104.04842 2354 ft 173 kts 205°
2026-05-08 08:12 1.46482 104.04383 2134 ft 161 kts 204°
2026-05-08 08:13 1.45479 104.03949 1921 ft 152 kts 204°
2026-05-08 08:13 1.44525 104.03537 1725 ft 148 kts 204°
2026-05-08 08:13 1.43584 104.03131 1549 ft 147 kts 204°
2026-05-08 08:13 1.42682 104.02742 1361 ft 144 kts 204°
2026-05-08 08:14 1.41748 104.02337 1172 ft 142 kts 204°
2026-05-08 08:14 1.40849 104.01949 983 ft 140 kts 204°
2026-05-08 08:14 1.39953 104.01562 833 ft 140 kts 204°
2026-05-08 08:14 1.39082 104.01174 656 ft 137 kts 204°
2026-05-08 08:15 1.38218 104.00783 484 ft 136 kts 204°
2026-05-08 08:15 1.37345 104.00414 311 ft 138 kts 201°
2026-05-08 08:15 1.36469 104.00028 125 ft 139 kts 203°
2026-05-08 08:15 1.35602 103.99645 40 ft 130 kts 201°
2026-05-08 08:16 1.34941 103.99370 37 ft 73 kts 204°
2026-05-08 08:16 1.34619 103.99232 37 ft 43 kts 203°
2026-05-08 08:16 1.34463 103.99134 37 ft 13 kts 222°
2026-05-08 08:16 1.34398 103.99064 37 ft 15 kts 229°
2026-05-08 08:17 1.34384 103.98982 37 ft 12 kts 294°
2026-05-08 08:17 1.34431 103.98962 37 ft 6 kts
2026-05-08 08:17 1.34499 103.98985 37 ft 14 kts 22°
2026-05-08 08:17 1.34601 103.99027 37 ft 17 kts 21°
2026-05-08 08:18 1.34721 103.99078 37 ft 20 kts 24°
2026-05-08 08:18 1.34854 103.99134 37 ft 22 kts 22°
2026-05-08 08:18 1.35005 103.99198 37 ft 25 kts 23°
2026-05-08 08:18 1.35170 103.99267 37 ft 27 kts 23°
2026-05-08 08:19 1.35345 103.99341 37 ft 26 kts 23°
2026-05-08 08:19 1.35514 103.99413 37 ft 28 kts 23°
2026-05-08 08:19 1.35682 103.99483 37 ft 21 kts 23°
2026-05-08 08:19 1.35816 103.99532 37 ft 12 kts 358°
2026-05-08 08:20 1.35845 103.99503 37 ft 6 kts 301°
2026-05-08 08:20 1.35869 103.99454 37 ft 9 kts 294°
2026-05-08 08:20 1.35900 103.99384 37 ft 13 kts 294°
2026-05-08 08:20 1.35922 103.99333 37 ft 0 kts 294°
2026-05-08 08:22 1.35927 103.99303 37 ft 7 kts 262°
2026-05-08 08:22 1.35894 103.99272 37 ft 6 kts 205°
2026-05-08 08:22 1.35843 103.99250 37 ft 10 kts 203°
2026-05-08 08:22 1.35776 103.99239 37 ft 7 kts 157°
2026-05-08 08:23 1.35730 103.99272 37 ft 9 kts 142°
2026-05-08 08:23 1.35715 103.99283 37 ft 0 kts 143°
2026-05-08 08:23 1.35714 103.99284 37 ft 0 kts 143°